Weather History for KSLC - November, 2013

Change the Weather History Date:

Thursday, November 14, 2013

  Actual Average Record
Temperature  
Mean Temperature 47 °F 41 °F  
Max Temperature 60 °F 50 °F 71 °F (1967)
Min Temperature 33 °F 31 °F 3 °F (1955)
Degree Days  
Heating Degree Days 18 24  
Month to date heating degree days 241 298  
Since 1 July heating degree days 679 766  
Cooling Degree Days 0 0  
Month to date cooling degree days 0 0  
Year to date cooling degree days 1768 1160  
Moisture  
Dew Point 29 °F    
Average Humidity 53    
Maximum Humidity 82    
Minimum Humidity 24    
Precipitation  
Precipitation 0.00 in 0.05 in 0.71 in (1955)
Month to date precipitation 0.29 0.70  
Year to date precipitation 9.64 13.94  
Snow  
Snow 0.00 in 0.20 in 6.90 in (1955)
Month to date snowfall 3.5 2.3  
Since 1 July snowfall 3.5 3.7  
Snow Depth 0.00 in    
Sea Level Pressure  
Sea Level Pressure 30.00 in    
Wind  
Wind Speed 7 mph (SSE)    
Max Wind Speed 20 mph    
Max Gust Speed 24 mph    
Visibility 10 miles    
Events      
T = Trace of Precipitation, MM = Missing Value Source: NWS Daily Summary

Daily Weather History Graph

Daily Weather History Graph

Search for Another Location

Airport or City:

Trip Planner

Search our weather history database for the weather conditions in past years. The results will help you decide how hot, cold, wet, or windy it might be!

Date:

Astronomy

Nov. 14, 2013 Rise Set
Actual Time 7:14 AM MST 5:10 PM MST
Civil Twilight 6:44 AM MST 5:39 PM MST
Nautical Twilight 6:11 AM MST 6:12 PM MST
Astronomical Twilight 5:39 AM MST 6:45 PM MST
Moon 3:34 PM MST (11/14) 4:12 AM MST (11/14)
Length of Visible Light 10h 54m
Length of Day
9h 56m
Waxing Gibbous, 92% of the Moon is Illuminated
Nov 14
Waxing Gibbous
Nov 17
Full
Nov 25
Last Quarter
Dec 2
New
Dec 9
First Quarter

Hourly Weather History & Observations

Time (MST) Temp. Windchill Dew Point Humidity Pressure Visibility Wind Dir Wind Speed Gust Speed Precip Events Conditions
12:53 AM 39.0 °F 36.8 °F 33.1 °F 79% 30.21 in 10.0 mi ESE 3.5 mph - N/A   Partly Cloudy
1:53 AM 39.0 °F 35.7 °F 32.0 °F 76% 30.21 in 10.0 mi ESE 4.6 mph - N/A   Clear
2:53 AM 37.0 °F 34.5 °F 30.9 °F 79% 30.20 in 10.0 mi South 3.5 mph - N/A   Clear
3:53 AM 36.0 °F 33.3 °F 30.9 °F 82% 30.19 in 10.0 mi SE 3.5 mph - N/A   Clear
4:53 AM 35.1 °F 30.1 °F 28.9 °F 78% 30.19 in 10.0 mi SSE 5.8 mph - N/A   Clear
5:53 AM 34.0 °F 28.0 °F 28.0 °F 79% 30.20 in 10.0 mi SSE 6.9 mph - N/A   Clear
6:53 AM 35.1 °F 29.3 °F 28.0 °F 76% 30.19 in 10.0 mi SSE 6.9 mph - N/A   Clear
7:53 AM 36.0 °F 29.0 °F 28.9 °F 76% 30.19 in 10.0 mi SE 9.2 mph - N/A   Scattered Clouds
8:53 AM 44.1 °F 39.5 °F 30.0 °F 58% 30.17 in 10.0 mi SE 8.1 mph - N/A   Scattered Clouds
9:53 AM 48.0 °F - 30.9 °F 52% 30.16 in 10.0 mi SE 9.2 mph - N/A   Scattered Clouds
10:53 AM 51.1 °F - 30.9 °F 46% 30.12 in 10.0 mi SSE 9.2 mph - N/A   Mostly Cloudy
11:53 AM 54.0 °F - 30.9 °F 41% 30.06 in 10.0 mi SE 5.8 mph - N/A   Mostly Cloudy
12:53 PM 55.9 °F - 28.0 °F 34% 29.99 in 10.0 mi South 11.5 mph - N/A   Scattered Clouds
1:53 PM 57.0 °F - 27.0 °F 32% 29.93 in 10.0 mi South 17.3 mph - N/A   Scattered Clouds
2:53 PM 57.9 °F - 24.1 °F 27% 29.87 in 10.0 mi South 13.8 mph 24.2 mph N/A   Mostly Cloudy
3:53 PM 60.1 °F - 23.0 °F 24% 29.83 in 10.0 mi South 9.2 mph - N/A   Mostly Cloudy
4:53 PM 57.0 °F - 21.9 °F 26% 29.81 in 10.0 mi SSW 10.4 mph 19.6 mph N/A   Mostly Cloudy
5:53 PM 48.9 °F - 25.0 °F 39% 29.81 in 10.0 mi West 6.9 mph - N/A   Scattered Clouds
6:53 PM 46.0 °F 42.5 °F 30.0 °F 54% 29.81 in 10.0 mi WSW 6.9 mph - N/A   Mostly Cloudy
7:53 PM 48.0 °F - 33.1 °F 56% 29.81 in 10.0 mi WNW 6.9 mph - N/A   Mostly Cloudy
8:53 PM 43.0 °F - 32.0 °F 65% 29.78 in 10.0 mi Calm Calm - N/A   Mostly Cloudy
9:53 PM 43.0 °F - 32.0 °F 65% 29.75 in 10.0 mi Calm Calm - N/A   Mostly Cloudy
10:53 PM 43.0 °F 39.5 °F 32.0 °F 65% 29.72 in 10.0 mi SSE 5.8 mph - N/A   Mostly Cloudy
11:53 PM 44.1 °F 40.8 °F 30.9 °F 60% 29.69 in 10.0 mi SE 5.8 mph - N/A   Scattered Clouds